Terug naar catalogus

EXPLORER 22

ActiefWetenschapLEO
NORAD 899·PAYLOAD·🇺🇸 United States

Gelanceerd Oct 10, 1964 vanaf Vandenberg Space Force Base

Loading…

Volgende Passages (komende 24 uur)

TLE

VersSource: Space-Track

Epoch: Sep 14, 2026, 15:44 UTC

1 00899U 64064A   26257.65581429  .00000138  00000-0  11488-3 0  9995
2 00899  79.6919  29.0888 0118887 336.2197  23.3485 13.83074859117347

Volg EXPLORER 22 in realtime met AllMySat

Download on the App Store